Location: Aiyekoto
(8.4333°N, 4.3667°E)
Time: 23:40:23
(UTC+00:00)

Centaur D-1A AC-31 - Pass Details

Date: 02 October 2020
Orbit: 553 x 36388 km, 27.2° (Epoch: 24 October)

Event Time Altitude Azimuth Distance (km) Brightness Sun altitude
Rises 22:42:55 0° 289° (WNW) 12,026 7.8 -77.1°
Reaches altitude 10° 22:58:21 10° 276° (W) 6,403 6.2 -80.6°
Enters shadow 23:00:35 12° 272° (W) 5,502 5.9 -81.1°
